User: anonymous   Login
Location: Brabourne
(51.1333°N, 1.0000°E)
Time: 03:40:36
(UTC+00:00)
Language:

Cosmos 990 Rocket - Orbit

View from above orbital plane
View from above orbital plane
View from above satellite
View from above satellite

Ground track
Ground track

The orbit data is extracted from the following two-line orbital elements,

1 10677U 78019B   21268.16770293 -.00000022  00000-0  16030-5 0  9990
2 10677  74.0367 297.0245 0015730 342.5063  17.5548 14.40199309286891
Epoch (UTC): 25 September 2021 04:01:29
Eccentricity: 0.0015730
inclination: 74.0367°
perigee height: 746 km
apogee height: 769 km
right ascension of ascending node: 297.0245°
argument of perigee: 342.5063°
revolutions per day: 14.40199309
mean anomaly at epoch: 17.5548°
orbit number at epoch: 28689

The dashed part of the orbit path shows where the satellite is in the earth's shadow,  

DLR